Regional Weather Roundup
Issued by NWS Kansas City/Pleasant Hill, MO

Home | Current Version | Previous Version | Graphics & Text | Print | Product List | Glossary Off
Versions: 1 2 3 4 5 6 7 8 9 10 11 12 13 14 15 16 17 18 19 20 21 22 23 24 25 26 27 28 29 30 31 32 33 34 35 36 37 38 39 40 41 42 43 44 45 46 47 48 49 50

144
ASUS43 KEAX 060010
RWREAX

WEATHER ROUNDUP FOR EASTERN KANSAS AND NORTHWEST MISSOURI
NATIONAL WEATHER SERVICE KANSAS CITY/PLEASANT HILL MO
600 PM CST FRI FEB 05 2016

KSZ040-057-103>105-MOZ028-029-037-043-060100-
...KANSAS CITY METROPOLITAN AREA...

CITY           SKY/WX    TMP DP  RH WIND       PRES   REMARKS
K.C. INTL      CLOUDY    39  22  50 SE5       30.27F
6HR MIN TEMP:  32; 6HR MAX TEMP:  41;

K.C. DOWNTOWN  CLOUDY    43  21  41 SE5       30.28F
6HR MIN TEMP:  35; 6HR MAX TEMP:  44;

LEES SUMMIT    CLOUDY    41  22  46 SE6       30.29S
6HR MIN TEMP:  33; 6HR MAX TEMP:  42;

OLATHE - IXD   CLOUDY    40  23  50 SE8       30.28F WCI  34
6HR MIN TEMP:  33; 6HR MAX TEMP:  43;

OLATHE - OJC   CLOUDY    40  22  48 S7        30.28F
6HR MIN TEMP:  33; 6HR MAX TEMP:  43;

LAWRENCE         N/A     37  24  59 CALM      30.29R

$$

MOZ001>008-011>017-020>025-030>033-038>040-044>046-053-054-060100-
...NORTHERN AND CENTRAL MISSOURI...

CITY           SKY/WX    TMP DP  RH WIND       PRES   REMARKS
ST. JOSEPH     CLOUDY    38  23  55 SE3       30.30R
6HR MIN TEMP:  31; 6HR MAX TEMP:  39;

MOSBY          CLOUDY    37  25  60 SE3       30.30S
WARRENSBURG    CLOUDY    41  23  48 SE6       30.30F
WHITEMAN AFB   MOCLDY    40  22  48 CALM      30.31S
6HR MIN TEMP:  35; 6HR MAX TEMP:  44;

CLINTON          N/A     41  27  56 N7        30.32S
SEDALIA        MOCLDY    41  20  43 NE3       30.33R
6HR MIN TEMP:  35; 6HR MAX TEMP:  46;

WARSAW         NOT AVBL
CHILLICOTHE      N/A     36  22  56 VRB3      30.33S
6HR MIN TEMP:  31; 6HR MAX TEMP:  38;

KIRKSVILLE     CLOUDY    30  21  69 SE7       30.33F WCI  23
6HR MIN TEMP:  30; 6HR MAX TEMP:  36;


$$

MOZ041-047>049-056>058-063>065-088>090-097-060100-
...EASTERN AND SOUTHERN MISSOURI...

CITY           SKY/WX    TMP DP  RH WIND       PRES   REMARKS
ST. LOUIS INTL PTCLDY    38  16  40 NE3       30.37S
6HR MIN TEMP:  37; 6HR MAX TEMP:  42;

SPIRIT OF STL  CLEAR     33  22  63 CALM      30.36S
COLUMBIA       CLEAR     39  14  36 E3        30.33F
JEFFERSON CITY CLEAR     40  18  41 E5        30.34F
ROLLA          CLEAR     36  21  54 N5        30.31S WCI  32
OSAGE BEACH    CLOUDY    41  19  42 NE5       30.32S
SPRINGFIELD    PTCLDY    44  17  33 CALM      30.29F
BRANSON        MOCLDY    46  12  25 W3        30.31F
JOPLIN         PTCLDY    47  18  31 CALM      30.30R
WEST PLAINS    CLOUDY    42  16  34 CALM      30.32S

$$

IAZ060-094-KSZ022-034>040-054-083-096-NEZ052-066-093-060100-
...KANSAS...SOUTHEAST NEBRASKA AND IOWA...

CITY           SKY/WX    TMP DP  RH WIND       PRES   REMARKS
TOPEKA         CLOUDY    40  22  48 E3        30.28R
6HR MIN TEMP:  34; 6HR MAX TEMP:  44;

MANHATTAN      CLOUDY    39  24  55 S3        30.25F
EMPORIA        MOCLDY    45  22  40 SE3       30.24F
CHANUTE        PTCLDY    46  23  40 SE5       30.27S
WICHITA        PTCLDY    46  27  47 NW8       30.24S
OMAHA          CLOUDY    32  28  85 S8        30.25S FOG     WCI  25
LINCOLN        CLOUDY    34  28  79 SW7       30.25S WCI  28
FALLS CITY     CLOUDY    35  25  66 SE6       30.26F WCI  30
LAMONI         CLOUDY    31  23  72 S10       30.28F WCI  22
DES MOINES     LGT SNOW  29  23  78 S7        30.29S WCI  22

$$





USA.gov is the U.S. government's official web portal to all federal, state and local government web resources and services.